BOV620 SLLP-SLCB

Flight info

Callsign BOV620
Flight time 0h 34m
Altitude 29000
Route DAKOG UW677 TEDOK
Aircraft B738/M-SDE2E3FGHIRWXY/LB1

Departure

Time 2026-04-26 01:20
Airport El Alto International Airport (SLLP)

Arrival

Time 2026-04-26 01:54
Airport Jorge Wilsterman International Airport (SLCB)
Time Latitude Longitude Altitude Speed Heading
2026-04-26 00:38 -16.50989 -68.17874 13321 ft 0 kts
2026-04-26 01:07 -16.51003 -68.17875 13321 ft 2 kts
2026-04-26 01:07 -16.51019 -68.17875 13321 ft 2 kts
2026-04-26 01:08 -16.51035 -68.17876 13321 ft 2 kts 360°
2026-04-26 01:08 -16.51051 -68.17872 13321 ft 2 kts 318°
2026-04-26 01:08 -16.51055 -68.17862 13321 ft 1 kts 261°
2026-04-26 01:08 -16.51054 -68.17859 13321 ft 0 kts 257°
2026-04-26 01:11 -16.51056 -68.17882 13321 ft 7 kts 265°
2026-04-26 01:11 -16.51063 -68.17954 13321 ft 13 kts 256°
2026-04-26 01:11 -16.51121 -68.18044 13321 ft 15 kts 232°
2026-04-26 01:12 -16.51184 -68.18128 13321 ft 14 kts 232°
2026-04-26 01:12 -16.51245 -68.18208 13321 ft 13 kts 232°
2026-04-26 01:12 -16.51301 -68.18283 13321 ft 13 kts 232°
2026-04-26 01:12 -16.51353 -68.18356 13321 ft 12 kts 245°
2026-04-26 01:13 -16.51359 -68.18447 13321 ft 16 kts 272°
2026-04-26 01:13 -16.51354 -68.18604 13321 ft 24 kts 272°
2026-04-26 01:13 -16.51348 -68.18770 13321 ft 22 kts 272°
2026-04-26 01:13 -16.51343 -68.18930 13321 ft 22 kts 271°
2026-04-26 01:14 -16.51340 -68.19083 13321 ft 21 kts 271°
2026-04-26 01:14 -16.51335 -68.19228 13321 ft 20 kts 273°
2026-04-26 01:14 -16.51330 -68.19367 13321 ft 19 kts 271°
2026-04-26 01:14 -16.51327 -68.19500 13321 ft 18 kts 271°
2026-04-26 01:15 -16.51321 -68.19625 13321 ft 17 kts 273°
2026-04-26 01:15 -16.51315 -68.19744 13321 ft 16 kts 272°
2026-04-26 01:15 -16.51312 -68.19878 13321 ft 22 kts 271°
2026-04-26 01:15 -16.51306 -68.20032 13321 ft 21 kts 272°
2026-04-26 01:16 -16.51301 -68.20181 13321 ft 20 kts 271°
2026-04-26 01:16 -16.51300 -68.20320 13321 ft 19 kts 270°
2026-04-26 01:16 -16.51299 -68.20454 13321 ft 18 kts 270°
2026-04-26 01:16 -16.51292 -68.20581 13321 ft 17 kts 274°
2026-04-26 01:17 -16.51286 -68.20702 13321 ft 16 kts 272°
2026-04-26 01:17 -16.51282 -68.20816 13321 ft 15 kts 272°
2026-04-26 01:17 -16.51276 -68.20920 13321 ft 12 kts 275°
2026-04-26 01:17 -16.51269 -68.20990 13321 ft 8 kts 282°
2026-04-26 01:18 -16.51246 -68.21044 13321 ft 8 kts 274°
2026-04-26 01:18 -16.51271 -68.21039 13321 ft 7 kts 114°
2026-04-26 01:18 -16.51277 -68.21007 13321 ft 0 kts 91°
2026-04-26 01:19 -16.51277 -68.21003 13321 ft 3 kts 91°
2026-04-26 01:19 -16.51279 -68.20920 13321 ft 31 kts 93°
2026-04-26 01:19 -16.51294 -68.20497 13321 ft 85 kts 91°
2026-04-26 01:19 -16.51318 -68.19710 13321 ft 131 kts 92°
2026-04-26 01:20 -16.51353 -68.18607 13322 ft 172 kts 92°
2026-04-26 01:20 -16.51408 -68.17229 13363 ft 203 kts 92°
2026-04-26 01:20 -16.51432 -68.15732 13728 ft 217 kts 92°
2026-04-26 01:20 -16.51475 -68.14119 14297 ft 222 kts 95°
2026-04-26 01:21 -16.51903 -68.12620 15025 ft 218 kts 127°
2026-04-26 01:21 -16.53083 -68.11563 15215 ft 237 kts 155°
2026-04-26 01:21 -16.54660 -68.10964 15553 ft 250 kts 161°
2026-04-26 01:21 -16.56376 -68.10364 15914 ft 264 kts 163°
2026-04-26 01:22 -16.58145 -68.09786 16575 ft 269 kts 163°
2026-04-26 01:22 -16.59948 -68.09198 17269 ft 272 kts 163°
2026-04-26 01:22 -16.61745 -68.08613 17962 ft 275 kts 163°
2026-04-26 01:22 -16.63581 -68.08014 18641 ft 278 kts 163°
2026-04-26 01:23 -16.65347 -68.07165 19289 ft 283 kts 148°
2026-04-26 01:23 -16.66888 -68.05875 19943 ft 286 kts 138°
2026-04-26 01:23 -16.68308 -68.04393 20583 ft 290 kts 134°
2026-04-26 01:23 -16.69670 -68.02831 21207 ft 293 kts 133°
2026-04-26 01:24 -16.71048 -68.01248 21833 ft 296 kts 133°
2026-04-26 01:24 -16.72443 -67.99657 22436 ft 298 kts 133°
2026-04-26 01:24 -16.73774 -67.97975 23003 ft 303 kts 124°
2026-04-26 01:24 -16.74736 -67.96038 23560 ft 307 kts 112°
2026-04-26 01:25 -16.75437 -67.93877 24010 ft 316 kts 107°
2026-04-26 01:25 -16.75830 -67.92398 24195 ft 325 kts 105°
2026-04-26 01:25 -16.76589 -67.89263 24463 ft 346 kts 104°
2026-04-26 01:25 -16.77191 -67.86775 24646 ft 361 kts 105°
2026-04-26 01:26 -16.77824 -67.84184 24824 ft 376 kts 105°
2026-04-26 01:26 -16.78267 -67.82376 24941 ft 385 kts 105°
2026-04-26 01:26 -16.79170 -67.78712 25158 ft 403 kts 105°
2026-04-26 01:26 -16.79648 -67.76771 25256 ft 412 kts 105°
2026-04-26 01:27 -16.80374 -67.73844 25489 ft 421 kts 105°
2026-04-26 01:27 -16.81109 -67.70871 25834 ft 426 kts 105°
2026-04-26 01:27 -16.81862 -67.67871 26287 ft 428 kts 105°
2026-04-26 01:27 -16.82621 -67.64867 26797 ft 428 kts 105°
2026-04-26 01:28 -16.83360 -67.61903 27352 ft 427 kts 105°
2026-04-26 01:28 -16.84103 -67.58906 27919 ft 425 kts 105°
2026-04-26 01:28 -16.84844 -67.55909 28207 ft 428 kts 105°
2026-04-26 01:28 -16.85590 -67.52883 28282 ft 432 kts 105°
2026-04-26 01:29 -16.87079 -67.46834 28289 ft 429 kts 105°
2026-04-26 01:29 -16.88576 -67.40756 28292 ft 437 kts 106°
2026-04-26 01:30 -16.90391 -67.34764 28291 ft 433 kts 114°
2026-04-26 01:30 -16.92900 -67.29050 28292 ft 430 kts 117°
2026-04-26 01:31 -16.95436 -67.23395 28291 ft 430 kts 117°
2026-04-26 01:31 -16.97977 -67.17682 28292 ft 435 kts 117°
2026-04-26 01:32 -17.00502 -67.11982 28291 ft 431 kts 117°
2026-04-26 01:32 -17.03021 -67.06290 28290 ft 430 kts 116°
2026-04-26 01:33 -17.05530 -67.00664 28292 ft 431 kts 117°
2026-04-26 01:33 -17.08068 -66.94946 28291 ft 437 kts 117°
2026-04-26 01:34 -17.10617 -66.89170 28290 ft 436 kts 116°
2026-04-26 01:34 -17.13144 -66.83427 28289 ft 433 kts 116°
2026-04-26 01:35 -17.15653 -66.77729 28293 ft 429 kts 117°
2026-04-26 01:35 -17.18120 -66.72086 28255 ft 425 kts 115°
2026-04-26 01:36 -17.19206 -66.69261 27967 ft 420 kts 113°
2026-04-26 01:36 -17.20246 -66.66430 27603 ft 414 kts 113°
2026-04-26 01:36 -17.21288 -66.63620 27155 ft 412 kts 113°
2026-04-26 01:37 -17.23364 -66.58060 26273 ft 408 kts 113°
2026-04-26 01:37 -17.24395 -66.55310 25833 ft 406 kts 113°
2026-04-26 01:37 -17.25423 -66.52574 25390 ft 399 kts 113°
2026-04-26 01:37 -17.26415 -66.49930 24956 ft 383 kts 113°
2026-04-26 01:38 -17.27373 -66.47380 24461 ft 370 kts 114°
2026-04-26 01:38 -17.28304 -66.44897 23788 ft 363 kts 114°
2026-04-26 01:38 -17.29229 -66.42435 23125 ft 366 kts 114°
2026-04-26 01:38 -17.30161 -66.39948 22766 ft 364 kts 114°
2026-04-26 01:39 -17.31079 -66.37537 22544 ft 358 kts 114°
2026-04-26 01:39 -17.31995 -66.35114 22175 ft 357 kts 114°
2026-04-26 01:39 -17.32903 -66.32707 21839 ft 355 kts 114°
2026-04-26 01:39 -17.33808 -66.30305 21488 ft 353 kts 114°
2026-04-26 01:40 -17.34704 -66.27922 21155 ft 351 kts 114°
2026-04-26 01:40 -17.35595 -66.25551 20819 ft 349 kts 114°
2026-04-26 01:40 -17.36478 -66.23195 20463 ft 347 kts 114°
2026-04-26 01:40 -17.37362 -66.20841 20127 ft 346 kts 114°
2026-04-26 01:41 -17.38219 -66.18559 19958 ft 325 kts 114°
2026-04-26 01:41 -17.39002 -66.16466 19851 ft 302 kts 114°
2026-04-26 01:41 -17.39745 -66.14483 19658 ft 284 kts 114°
2026-04-26 01:41 -17.40449 -66.12617 19490 ft 267 kts 115°
2026-04-26 01:42 -17.41120 -66.10841 19179 ft 258 kts 115°
2026-04-26 01:42 -17.41771 -66.09111 18755 ft 254 kts 115°
2026-04-26 01:42 -17.42418 -66.07387 18326 ft 254 kts 114°
2026-04-26 01:42 -17.43063 -66.05660 18001 ft 254 kts 114°
2026-04-26 01:43 -17.43704 -66.03943 17743 ft 251 kts 114°
2026-04-26 01:43 -17.44340 -66.02239 17453 ft 250 kts 114°
2026-04-26 01:43 -17.44964 -66.00565 17203 ft 250 kts 115°
2026-04-26 01:43 -17.45600 -65.98859 17030 ft 250 kts 115°
2026-04-26 01:44 -17.46226 -65.97180 16992 ft 245 kts 115°
2026-04-26 01:44 -17.46848 -65.95511 17004 ft 248 kts 114°
2026-04-26 01:44 -17.47478 -65.93817 17011 ft 253 kts 114°
2026-04-26 01:44 -17.48117 -65.92099 17024 ft 250 kts 114°
2026-04-26 01:45 -17.48738 -65.90431 17007 ft 243 kts 115°
2026-04-26 01:45 -17.49341 -65.88808 16984 ft 235 kts 115°
2026-04-26 01:45 -17.49929 -65.87234 16986 ft 231 kts 115°
2026-04-26 01:45 -17.50512 -65.85666 16994 ft 232 kts 115°
2026-04-26 01:46 -17.51131 -65.84097 16998 ft 233 kts 122°
2026-04-26 01:46 -17.52246 -65.82962 16939 ft 221 kts 159°
2026-04-26 01:46 -17.53720 -65.82825 16727 ft 214 kts 198°
2026-04-26 01:46 -17.54905 -65.83715 16357 ft 213 kts 237°
2026-04-26 01:47 -17.55248 -65.85194 16080 ft 211 kts 268°
2026-04-26 01:47 -17.55286 -65.86718 15788 ft 208 kts 262°
2026-04-26 01:47 -17.55559 -65.88186 15498 ft 205 kts 252°
2026-04-26 01:47 -17.56061 -65.89552 15216 ft 201 kts 244°
2026-04-26 01:48 -17.56696 -65.90853 14928 ft 200 kts 241°
2026-04-26 01:48 -17.57366 -65.92123 14646 ft 199 kts 240°
2026-04-26 01:48 -17.58025 -65.93392 14354 ft 199 kts 241°
2026-04-26 01:48 -17.58697 -65.94692 14072 ft 205 kts 241°
2026-04-26 01:49 -17.59373 -65.96018 13774 ft 206 kts 244°
2026-04-26 01:49 -17.59553 -65.97485 13440 ft 208 kts 282°
2026-04-26 01:49 -17.58834 -65.98785 13161 ft 209 kts 308°
2026-04-26 01:49 -17.57809 -65.99873 12861 ft 209 kts 314°
2026-04-26 01:50 -17.56749 -66.00910 12549 ft 206 kts 313°
2026-04-26 01:50 -17.55757 -66.01952 12249 ft 201 kts 310°
2026-04-26 01:50 -17.54818 -66.02994 11975 ft 190 kts 309°
2026-04-26 01:50 -17.53938 -66.03994 11694 ft 186 kts 308°
2026-04-26 01:51 -17.53055 -66.05006 11428 ft 188 kts 308°
2026-04-26 01:51 -17.52178 -66.06027 11154 ft 189 kts 309°
2026-04-26 01:51 -17.51299 -66.07045 10901 ft 186 kts 310°
2026-04-26 01:51 -17.50444 -66.08041 10651 ft 183 kts 310°
2026-04-26 01:52 -17.49607 -66.09013 10386 ft 176 kts 310°
2026-04-26 01:52 -17.48793 -66.09958 10152 ft 173 kts 310°
2026-04-26 01:52 -17.47993 -66.10887 9910 ft 170 kts 310°
2026-04-26 01:52 -17.47199 -66.11809 9697 ft 172 kts 310°
2026-04-26 01:53 -17.46403 -66.12734 9456 ft 169 kts 310°
2026-04-26 01:53 -17.45622 -66.13641 9228 ft 168 kts 310°
2026-04-26 01:53 -17.44839 -66.14551 8998 ft 167 kts 310°
2026-04-26 01:53 -17.44074 -66.15460 8728 ft 168 kts 311°
2026-04-26 01:54 -17.43281 -66.16359 8463 ft 168 kts 311°
2026-04-26 01:54 -17.42532 -66.17232 8369 ft 151 kts 311°
2026-04-26 01:54 -17.41966 -66.17884 8368 ft 89 kts 314°
2026-04-26 01:54 -17.41676 -66.18215 8368 ft 41 kts 313°
2026-04-26 01:55 -17.41506 -66.18415 8368 ft 35 kts 310°
2026-04-26 01:55 -17.41344 -66.18597 8368 ft 32 kts 312°
2026-04-26 01:55 -17.41206 -66.18756 8368 ft 27 kts 313°
2026-04-26 01:55 -17.41091 -66.18891 8368 ft 23 kts 311°
2026-04-26 01:56 -17.40998 -66.18999 8368 ft 12 kts 313°
2026-04-26 01:56 -17.40928 -66.19029 8368 ft 11 kts 315°
2026-04-26 01:56 -17.40955 -66.19036 8368 ft 11 kts 153°
2026-04-26 01:56 -17.41046 -66.18948 8368 ft 24 kts 132°
2026-04-26 01:57 -17.41171 -66.18803 8368 ft 26 kts 132°
2026-04-26 01:57 -17.41286 -66.18672 8368 ft 23 kts 132°
2026-04-26 01:57 -17.41392 -66.18550 8368 ft 22 kts 133°
2026-04-26 01:57 -17.41491 -66.18437 8368 ft 20 kts 131°
2026-04-26 01:58 -17.41580 -66.18330 8368 ft 17 kts 130°
2026-04-26 01:58 -17.41643 -66.18241 8368 ft 13 kts 86°
2026-04-26 01:58 -17.41589 -66.18173 8368 ft 12 kts 43°
2026-04-26 01:58 -17.41528 -66.18112 8368 ft 12 kts 43°
2026-04-26 01:59 -17.41469 -66.18055 8368 ft 11 kts 43°
2026-04-26 01:59 -17.41426 -66.18010 8368 ft 8 kts 46°
2026-04-26 01:59 -17.41420 -66.18004 8368 ft 0 kts 44°